Altus AFB, OK

8:16 PM CST on December 03, 2016 (GMT -0600)
Altus Air Force Base

Weather History for KLTS - May, 2014

Change the Weather History Date:

Tuesday, May 20, 2014

  Actual Average Record
Temperature  
Mean Temperature 82 °F -  
Max Temperature 99 °F 83 °F 102 °F (2006)
Min Temperature 66 °F 60 °F 48 °F (2000)
Cooling Degree Days 18    
Growing Degree Days 32 (Base 50)    
Moisture  
Dew Point 56 °F    
Average Humidity 41    
Maximum Humidity 71    
Minimum Humidity 23    
Precipitation  
Precipitation 0.00 in - - ()
Sea Level Pressure  
Sea Level Pressure 29.80 in    
Wind  
Wind Speed 15 mph (SSE)    
Max Wind Speed 25 mph    
Max Gust Speed 34 mph    
Visibility 10 miles    
Events      
Averages and records for this station are not official NWS values.
T = Trace of Precipitation, MM = Missing Value Source: NWS Daily Summary

Daily Weather History Graph

Daily Weather History Graph

Search for Another Location

Airport or City:

Trip Planner

Search our weather history database for the weather conditions in past years. The results will help you decide how hot, cold, wet, or windy it might be!

Date:

Astronomy

May. 20, 2014 Rise Set
Actual Time 6:30 AM CDT 8:36 PM CDT
Civil Twilight 6:02 AM CDT 9:05 PM CDT
Nautical Twilight 5:28 AM CDT 9:39 PM CDT
Astronomical Twilight 4:50 AM CDT 10:17 PM CDT
Moon 1:13 AM CDT (5/20) 12:32 PM CDT (5/20)
Length of Visible Light 15h 02m
Length of Day
14h 06m
Waning Gibbous, 60% of the Moon is Illuminated
May 20
Waning Gibbous
May 21
Last Quarter
May 28
New
Jun 5
First Quarter
Jun 12
Full

Hourly Weather History & Observations

Time (CDT) Temp. Heat Index Dew Point Humidity Pressure Visibility Wind Dir Wind Speed Gust Speed Precip Events Conditions
12:58 AM 76.6 °F - 57.0 °F 51% 29.77 in 10.0 mi SSE 11.5 mph - N/A   Clear
1:58 AM 75.9 °F - 56.8 °F 51% 29.77 in 10.0 mi SSE 11.5 mph - N/A   Clear
2:58 AM 74.8 °F - 56.8 °F 53% 29.76 in 10.0 mi SE 11.5 mph - N/A   Clear
3:58 AM 74.8 °F - 57.4 °F 54% 29.77 in 10.0 mi SSE 9.2 mph - N/A   Clear
4:58 AM 73.0 °F - 57.2 °F 57% 29.79 in 10.0 mi SSE 12.7 mph - N/A   Clear
5:58 AM 72.0 °F - 57.4 °F 60% 29.80 in 10.0 mi SSE 10.4 mph - N/A   Clear
6:58 AM 66.7 °F - 57.2 °F 71% 29.83 in 10.0 mi SE 6.9 mph - N/A   Clear
7:58 AM 70.9 °F - 57.9 °F 63% 29.83 in 10.0 mi SSE 16.1 mph - N/A   Clear
8:58 AM 76.1 °F - 58.3 °F 54% 29.84 in 10.0 mi South 18.4 mph - N/A   Clear
9:58 AM 80.6 °F 81.1 °F 59.0 °F 48% 29.85 in 10.0 mi South 23.0 mph - N/A   Clear
10:58 AM 84.0 °F 83.8 °F 59.2 °F 43% 29.83 in 10.0 mi South 21.9 mph 26.5 mph N/A   Clear
11:58 AM 87.8 °F 87.1 °F 59.0 °F 38% 29.83 in 10.0 mi South 19.6 mph 27.6 mph N/A   Clear
12:58 PM 90.0 °F 88.8 °F 58.3 °F 34% 29.82 in 10.0 mi South 21.9 mph 27.6 mph N/A   Clear
1:58 PM 93.0 °F 91.7 °F 57.2 °F 30% 29.81 in 10.0 mi SSE 17.3 mph 28.8 mph N/A   Scattered Clouds
2:58 PM 95.9 °F 94.6 °F 56.8 °F 27% 29.80 in 10.0 mi South 20.7 mph 25.3 mph N/A   Scattered Clouds
3:58 PM 97.9 °F 96.6 °F 56.7 °F 25% 29.78 in 10.0 mi South 21.9 mph 29.9 mph N/A   Clear
4:58 PM 99.1 °F 97.5 °F 54.7 °F 23% 29.76 in 10.0 mi South 18.4 mph 28.8 mph N/A   Clear
5:58 PM 99.0 °F 97.7 °F 55.9 °F 24% 29.75 in 10.0 mi South 21.9 mph - N/A   Clear
6:58 PM 97.5 °F 95.7 °F 55.2 °F 24% 29.74 in 10.0 mi South 20.7 mph 26.5 mph N/A   Scattered Clouds
7:58 PM 93.6 °F - 52.3 °F 25% 29.74 in 10.0 mi SSE 25.3 mph 32.2 mph N/A   Scattered Clouds
8:58 PM 89.2 °F - 50.7 °F 27% 29.81 in 10.0 mi SSE 20.7 mph 28.8 mph N/A   Mostly Cloudy
9:58 PM 87.6 °F - 49.3 °F 27% 29.83 in 10.0 mi SSE 21.9 mph 28.8 mph N/A   Scattered Clouds
10:58 PM 84.2 °F - 51.6 °F 32% 29.85 in 10.0 mi SSE 23.0 mph 28.8 mph N/A   Partly Cloudy
11:58 PM 82.6 °F 81.6 °F 54.0 °F 37% 29.86 in 10.0 mi SSE 23.0 mph 34.5 mph N/A   Overcast